Location: Edemissen
(51.7689°N, 9.8634°E)
Time: 13:39:40
(UTC+00:00)

Gurwin Techsat 1B - Visible Passes

Search period start: 16 April 2026 00:00
Search period end: 26 April 2026 00:00
Orbit: 809 x 812 km, 99.0° (Epoch: 16 April)

Date Brightness Start Highest point End Pass type
(mag) Time Alt. Az. Time Alt. Az. Time Alt. Az.
16 Apr 11.5 03:11:23 10° NE 03:14:24 15° E 03:17:24 10° ESE visible
20 Apr 11.4 03:16:41 10° NE 03:20:00 17° E 03:23:18 10° SE visible
21 Apr 11.9 02:55:13 10° ENE 02:56:00 10° E 02:56:49 10° E visible
24 Apr 11.3 03:22:01 10° NE 03:25:36 18° E 03:29:10 10° SE visible
25 Apr 11.7 02:59:54 10° ENE 03:01:38 11° E 03:03:21 10° ESE visible
